Location: Newark
(33.6439°N, 114.9881°W)
Time: 14:20:12
(UTC+00:00)

Tiros 1 despin weight - All Passes

Search period start: 17 July 2019 00:00
Search period end: 27 July 2019 00:00
Orbit: 594 x 642 km, 48.2° (Epoch: 16 July)

Date Brightness Start Highest point End Pass type
(mag) Time Alt. Az. Time Alt. Az. Time Alt. Az.
17 Jul - 01:17:46 10° NNW 01:20:40 16° NNE 01:23:32 10° NE daylight
17 Jul - 02:58:40 10° NW 03:03:06 48° NNE 03:07:26 10° ESE daylight
17 Jul - 04:40:42 10° WNW 04:44:28 26° SW 04:48:10 10° S visible
17 Jul - 18:45:19 10° S 18:48:25 18° SE 18:51:30 10° E daylight
17 Jul - 20:24:55 10° WSW 20:29:35 71° NW 20:34:16 10° NE daylight
17 Jul - 22:08:22 10° WNW 22:11:48 20° NNW 22:15:13 10° NNE daylight
17 Jul - 23:52:39 10° NNW 23:54:49 13° N 23:56:58 10° NNE daylight
18 Jul - 01:34:08 10° NNW 01:37:46 22° NNE 01:41:20 10° ENE daylight
18 Jul - 03:15:13 10° NW 03:19:47 87° SW 03:24:16 10° SE visible
18 Jul - 04:59:12 10° WSW 05:00:45 12° SW 05:02:19 10° SSW visible
18 Jul - 19:00:29 10° SSW 19:04:48 37° SE 19:09:06 10° ENE daylight
18 Jul - 20:41:58 10° W 20:46:21 39° NNW 20:50:44 10° NE daylight
18 Jul - 22:26:12 10° NW 22:28:56 15° NNW 22:31:39 10° NNE daylight
19 Jul - 00:09:30 10° NNW 00:12:03 14° N 00:14:36 10° NE daylight
19 Jul - 01:50:29 10° NW 01:54:42 34° NNE 01:58:51 10° E daylight
19 Jul - 03:32:02 10° WNW 03:36:18 41° SW 03:40:30 10° SSE visible
19 Jul - 17:39:10 10° SE 17:40:19 11° SE 17:41:29 10° ESE daylight
19 Jul - 19:16:37 10° SW 19:21:18 78° SE 19:25:58 10° NE daylight
19 Jul - 20:59:25 10° WNW 21:03:16 24° NNW 21:07:06 10° NNE daylight
19 Jul - 22:43:55 10° NNW 22:46:10 13° N 22:48:24 10° NNE daylight
20 Jul - 00:25:58 10° NNW 00:29:13 18° NNE 00:32:26 10° ENE daylight
20 Jul - 02:06:55 10° NW 02:11:29 63° NE 02:15:57 10° ESE daylight
20 Jul - 03:49:29 10° W 03:52:41 19° SW 03:55:50 10° S visible
20 Jul - 17:52:52 10° S 17:56:37 24° SE 18:00:23 10° ENE daylight
20 Jul - 19:33:21 10° WSW 19:37:57 54° NW 19:42:33 10° NE daylight
20 Jul - 21:17:11 10° WNW 21:20:20 17° NNW 21:23:28 10° NNE daylight
20 Jul - 23:01:06 10° NNW 23:03:25 13° N 23:05:43 10° NE daylight
21 Jul - 00:42:19 10° NNW 00:46:15 27° NNE 00:50:08 10° E daylight
21 Jul - 02:23:34 10° WNW 02:28:06 64° SW 02:32:33 10° SE daylight
21 Jul - 18:08:31 10° SSW 18:13:02 51° SE 18:17:35 10° ENE daylight
21 Jul - 19:50:35 10° W 19:54:46 31° NNW 19:58:58 10° NE daylight
21 Jul - 21:35:01 10° NW 21:37:31 14° N 21:40:00 10° NNE daylight
21 Jul - 23:17:45 10° NNW 23:20:38 16° NNE 23:23:28 10° NE daylight
22 Jul - 00:58:42 10° NW 01:03:08 44° NNE 01:07:29 10° ESE daylight
22 Jul - 02:40:35 10° WNW 02:44:34 29° SW 02:48:28 10° SSE daylight
22 Jul - 16:45:44 10° SSE 16:48:29 16° SE 16:51:15 10° E daylight
22 Jul - 18:24:55 10° SW 18:29:36 79° NW 18:34:19 10° NE daylight
22 Jul - 20:08:12 10° WNW 20:11:45 21° NNW 20:15:19 10° NNE daylight
22 Jul - 21:52:31 10° NNW 21:54:46 13° N 21:56:59 10° NNE daylight
22 Jul - 23:34:10 10° NNW 23:37:44 21° NNE 23:41:17 10° ENE daylight
23 Jul - 01:15:12 10° NW 01:19:51 84° NE 01:24:23 10° SE daylight
23 Jul - 02:58:38 10° W 03:00:52 14° SW 03:03:06 10° SSW daylight
23 Jul - 17:00:40 10° SSW 17:04:50 33° SE 17:09:02 10° ENE daylight
23 Jul - 18:41:53 10° WSW 18:46:20 42° NNW 18:50:48 10° NE daylight
23 Jul - 20:26:01 10° NW 20:28:52 16° NNW 20:31:44 10° NNE daylight
23 Jul - 22:09:28 10° NNW 22:12:00 14° N 22:14:32 10° NE daylight
23 Jul - 23:50:31 10° NW 23:54:43 32° NNE 23:58:51 10° E daylight
24 Jul - 01:31:58 10° WNW 01:36:23 46° SW 01:40:43 10° SSE daylight
24 Jul - 17:16:41 10° SW 17:21:19 70° SE 17:26:00 10° NE daylight
24 Jul - 18:59:17 10° W 19:03:14 26° NNW 19:07:11 10° NNE daylight
24 Jul - 20:43:45 10° NW 20:46:06 13° N 20:48:26 10° NNE daylight
24 Jul - 22:25:59 10° NNW 22:29:11 18° NNE 22:32:21 10° ENE daylight
25 Jul - 00:06:56 10° NW 00:11:32 57° NE 00:16:01 10° ESE daylight
25 Jul - 01:49:17 10° W 01:52:47 22° SW 01:56:14 10° S daylight
25 Jul - 15:53:09 10° S 15:56:40 22° SE 16:00:14 10° E daylight
25 Jul - 17:33:20 10° WSW 17:37:57 59° NW 17:42:35 10° NE daylight
25 Jul - 19:17:00 10° WNW 19:20:16 18° NNW 19:23:32 10° NNE daylight
25 Jul - 21:01:02 10° NNW 21:03:21 13° N 21:05:40 10° NNE daylight
25 Jul - 22:42:21 10° NNW 22:46:14 25° NNE 22:50:05 10° E daylight
26 Jul - 00:23:32 10° NW 00:28:10 72° SW 00:32:42 10° SE daylight
26 Jul - 16:08:38 10° SSW 16:13:04 45° SE 16:17:33 10° ENE daylight
26 Jul - 17:50:30 10° W 17:54:45 34° NNW 17:59:01 10° NE daylight
26 Jul - 19:34:49 10° NW 19:37:27 15° N 19:40:03 10° NNE daylight
26 Jul - 21:17:45 10° NNW 21:20:34 16° NNE 21:23:22 10° NE daylight
26 Jul - 22:58:43 10° NW 23:03:08 41° NNE 23:07:29 10° ESE daylight
